Tracking 31027 objects as of 19-Jul-2025
HD Live streaming from Space Station
objects crossing your sky now

STARLINK-5956

Track STARLINK-5956 now!
10-day predictions
STARLINK-5956 is classified as:


NORAD ID: 55994
Int'l Code: 2023-042J
Perigee: 565.3 km
Apogee: 567.2 km
Inclination: 43.0 °
Period: 95.8 minutes
Semi major axis: 6937 km
RCS: Unknown
Launch date: March 24, 2022
Source: United States (US)
Launch site: AIR FORCE EASTERN TEST RANGE (AFETR)
Your satellite tracking list
STARLINK-1578
Track 1 satellite(s)




NASA's NSSDC Master Catalog

Two Line Element Set (TLE):
1 55994U 23042J   25199.84989518 -.00000474  00000-0 -20026-4 0  9992
2 55994  43.0013 246.8357 0001361 272.1540  87.9146 15.02532539127732
Source of the keplerian elements: AFSPC